Location: Arpaise
(41.0333°N, 14.7333°E)
Time: 20:48:01
(UTC+00:00)

Cosmos 846 Rocket - Pass Details

Date: 22 January 2021
Orbit: 948 x 991 km, 82.9° (Epoch: 06 March)

Event Time Altitude Azimuth Distance (km) Brightness Sun altitude
Rises 19:17:32 0° 216° (SW) 3,668 8.9 -36.0°
Reaches altitude 10° 19:20:23 10° 227° (SW) 2,718 8.2 -36.5°
Maximum altitude 19:25:45 30° 287° (WNW) 1,669 7.1 -37.5°
Drops below altitude 10° 19:31:07 10° 347° (NNW) 2,707 8.0 -38.5°
Sets 19:33:58 0° 358° (N) 3,651 8.6 -39.0°
